Japanese version Home page |
Updated on December 6, 2005 |
Profile
|
Orbital ElementsEpoch 2005 Mar. 11.0 TT = JDT 2453440.5 T 2005 Mar. 3.15165 TT MPC q 1.7812017 (2000.0) P Q z +0.0000712 Peri. 136.89877 -0.40187633 -0.81505673 +/-0.0000035 Node 328.24962 +0.46164775 +0.21327131 e 0.9998732 Incl. 52.47644 +0.79080767 -0.53870017
|
Finding Charts
|
Magnitudes GraphH = 14.5 G = 0.15
|
The orbital elements are published on M.P.E.C. 2005-X12.
|